User: anonymous   Login
Location: Bodest
(46.3000°N, 22.5667°E)
Time: 08:24:18
(UTC+00:00)
Language:

Cosmos 1470 - Orbit

View from above orbital plane
View from above orbital plane
View from above satellite
View from above satellite

Ground track
Ground track

The orbit data is extracted from the following two-line orbital elements,

1 14147U 83061A   22016.86742020  .00001426  00000-0  81122-4 0  9996
2 14147  82.4828 192.8670 0014080 258.9621 101.0026 15.12030726857467
Epoch (UTC): 16 January 2022 20:49:05
Eccentricity: 0.0014080
inclination: 82.4828°
perigee height: 520 km
apogee height: 540 km
right ascension of ascending node: 192.8670°
argument of perigee: 258.9621°
revolutions per day: 15.12030726
mean anomaly at epoch: 101.0026°
orbit number at epoch: 85746

The dashed part of the orbit path shows where the satellite is in the earth's shadow,  

DLR